Time,TemperatureF,DewpointF,PressureIn,WindDirection,WindDirectionDegrees,WindSpeedMPH,WindSpeedGustMPH,Humidity,HourlyPrecipIn,Conditions,Clouds,dailyrainin,SoftwareType,DateUTC
2013-06-14 00:12:00,70.4,68.0,29.72,WSW,257,4.0,-999.0,91,-99.99,,,0.43,weatherlink.com 1.10,2013-06-14 04:12:00,
2013-06-14 00:27:00,70.1,67.0,29.65,North,353,0.0,-999.0,91,-99.99,,,0.45,weatherlink.com 1.10,2013-06-14 04:27:00,
2013-06-14 00:42:00,69.9,67.0,29.62,North,0,0.0,-999.0,91,-99.99,,,0.50,weatherlink.com 1.10,2013-06-14 04:42:00,
2013-06-14 00:57:00,69.9,68.0,29.64,NW,322,0.0,-999.0,92,-99.99,,,0.00,weatherlink.com 1.10,2013-06-14 04:57:00,
2013-06-14 01:12:00,69.9,68.0,29.66,North,353,0.0,-999.0,92,-99.99,,,0.01,weatherlink.com 1.10,2013-06-14 05:12:00,
2013-06-14 01:27:00,69.9,68.0,29.66,North,353,0.0,-999.0,92,-99.99,,,0.03,weatherlink.com 1.10,2013-06-14 05:27:00,
2013-06-14 01:42:00,69.9,68.0,29.64,North,353,0.0,-999.0,92,-99.99,,,0.04,weatherlink.com 1.10,2013-06-14 05:42:00,
2013-06-14 01:57:00,70.1,68.0,29.65,NNW,342,0.0,-999.0,92,-99.99,,,0.04,weatherlink.com 1.10,2013-06-14 05:57:00,
2013-06-14 02:12:00,69.8,67.0,29.63,NNW,347,0.0,-999.0,92,-99.99,,,0.08,weatherlink.com 1.10,2013-06-14 06:12:00,
2013-06-14 02:27:00,69.8,67.0,29.63,NNW,347,0.0,-999.0,92,-99.99,,,0.08,weatherlink.com 1.10,2013-06-14 06:27:00,
2013-06-14 02:42:00,69.9,68.0,29.64,NNW,347,0.0,-999.0,93,-99.99,,,0.08,weatherlink.com 1.10,2013-06-14 06:42:00,
2013-06-14 02:57:00,69.9,68.0,29.65,SSW,208,0.0,-999.0,93,-99.99,,,0.08,weatherlink.com 1.10,2013-06-14 06:57:00,
2013-06-14 03:12:00,70.1,68.0,29.65,SSW,209,0.0,-999.0,93,-99.99,,,0.08,weatherlink.com 1.10,2013-06-14 07:12:00,
2013-06-14 03:27:00,70.4,68.0,29.63,SSW,209,0.0,-999.0,93,-99.99,,,0.08,weatherlink.com 1.10,2013-06-14 07:27:00,
2013-06-14 03:42:00,70.4,68.0,29.64,SSW,209,0.0,-999.0,93,-99.99,,,0.08,weatherlink.com 1.10,2013-06-14 07:42:00,
2013-06-14 03:57:00,70.3,68.0,29.63,West,265,0.0,-999.0,93,-99.99,,,0.08,weatherlink.com 1.10,2013-06-14 07:57:00,
2013-06-14 04:12:00,69.9,68.0,29.63,North,0,0.0,-999.0,93,-99.99,,,0.08,weatherlink.com 1.10,2013-06-14 08:12:00,
2013-06-14 04:27:00,69.6,68.0,29.63,North,354,0.0,-999.0,93,-99.99,,,0.08,weatherlink.com 1.10,2013-06-14 08:27:00,
2013-06-14 04:42:00,69.3,67.0,29.64,NNW,347,0.0,-999.0,93,-99.99,,,0.08,weatherlink.com 1.10,2013-06-14 08:42:00,
2013-06-14 04:57:00,68.9,67.0,29.64,NNW,343,4.0,-999.0,93,-99.99,,,0.08,weatherlink.com 1.10,2013-06-14 08:57:00,
2013-06-14 05:12:00,68.8,66.0,29.64,NNW,340,0.0,-999.0,92,-99.99,,,0.08,weatherlink.com 1.10,2013-06-14 09:12:00,
2013-06-14 05:27:00,68.4,66.0,29.65,NNW,335,0.0,-999.0,92,-99.99,,,0.08,weatherlink.com 1.10,2013-06-14 09:27:00,
2013-06-14 05:42:00,68.3,66.0,29.65,NNW,340,0.0,-999.0,92,-99.99,,,0.08,weatherlink.com 1.10,2013-06-14 09:42:00,
2013-06-14 05:57:00,67.9,66.0,29.66,North,353,2.0,-999.0,92,-99.99,,,0.08,weatherlink.com 1.10,2013-06-14 09:57:00,
2013-06-14 06:12:00,67.8,66.0,29.67,NNW,333,0.0,-999.0,92,-99.99,,,0.08,weatherlink.com 1.10,2013-06-14 10:12:00,
2013-06-14 06:27:00,67.6,65.0,29.67,North,349,0.0,-999.0,92,-99.99,,,0.08,weatherlink.com 1.10,2013-06-14 10:27:00,
2013-06-14 06:42:00,67.8,66.0,29.68,NNW,344,0.0,-999.0,92,-99.99,,,0.08,weatherlink.com 1.10,2013-06-14 10:42:00,
2013-06-14 06:57:00,67.9,66.0,29.68,NNW,344,0.0,-999.0,92,-99.99,,,0.08,weatherlink.com 1.10,2013-06-14 10:57:00,
2013-06-14 07:12:00,68.3,66.0,29.68,NNW,335,1.0,-999.0,92,-99.99,,,0.08,weatherlink.com 1.10,2013-06-14 11:12:00,
2013-06-14 07:27:00,68.6,66.0,29.69,North,354,0.0,-999.0,92,-99.99,,,0.08,weatherlink.com 1.10,2013-06-14 11:27:00,
2013-06-14 07:42:00,69.1,66.0,29.69,NNW,333,0.0,-999.0,89,-99.99,,,0.08,weatherlink.com 1.10,2013-06-14 11:42:00,
2013-06-14 07:57:00,69.6,66.0,29.70,North,352,0.0,-999.0,89,-99.99,,,0.08,weatherlink.com 1.10,2013-06-14 11:57:00,
2013-06-14 08:12:00,70.1,65.0,29.70,North,357,7.0,-999.0,84,-99.99,,,0.08,weatherlink.com 1.10,2013-06-14 12:12:00,
2013-06-14 08:27:00,70.9,64.0,29.70,North,352,1.0,-999.0,80,-99.99,,,0.08,weatherlink.com 1.10,2013-06-14 12:27:00,
2013-06-14 08:42:00,71.3,63.0,29.71,NNW,333,13.0,-999.0,76,-99.99,,,0.08,weatherlink.com 1.10,2013-06-14 12:42:00,
2013-06-14 08:57:00,71.8,63.0,29.71,North,356,6.0,-999.0,74,-99.99,,,0.08,weatherlink.com 1.10,2013-06-14 12:57:00,
2013-06-14 09:12:00,72.3,62.0,29.72,NE,34,7.0,-999.0,71,-99.99,,,0.08,weatherlink.com 1.10,2013-06-14 13:12:00,
2013-06-14 09:27:00,73.0,62.0,29.72,NNW,328,9.0,-999.0,68,-99.99,,,0.08,weatherlink.com 1.10,2013-06-14 13:27:00,
2013-06-14 09:42:00,73.9,63.0,29.73,NNW,340,0.0,-999.0,68,-99.99,,,0.08,weatherlink.com 1.10,2013-06-14 13:42:00,
2013-06-14 09:57:00,74.4,61.0,29.73,NW,316,0.0,-999.0,63,-99.99,,,0.08,weatherlink.com 1.10,2013-06-14 13:57:00,
2013-06-14 10:12:00,74.4,60.0,29.73,North,352,4.0,-999.0,61,-99.99,,,0.08,weatherlink.com 1.10,2013-06-14 14:12:00,
2013-06-14 10:27:00,74.9,60.0,29.74,NNW,336,0.0,-999.0,60,-99.99,,,0.08,weatherlink.com 1.10,2013-06-14 14:27:00,
2013-06-14 10:42:00,75.4,59.0,29.74,North,352,6.0,-999.0,58,-99.99,,,0.08,weatherlink.com 1.10,2013-06-14 14:42:00,
2013-06-14 10:57:00,76.0,60.0,29.75,North,0,0.0,-999.0,58,-99.99,,,0.08,weatherlink.com 1.10,2013-06-14 14:57:00,
2013-06-14 11:12:00,76.1,60.0,29.75,NE,55,0.0,-999.0,58,-99.99,,,0.08,weatherlink.com 1.10,2013-06-14 15:12:00,
2013-06-14 11:27:00,76.3,60.0,29.75,North,359,7.0,-999.0,57,-99.99,,,0.08,weatherlink.com 1.10,2013-06-14 15:27:00,
2013-06-14 11:42:00,77.0,60.0,29.75,NNW,335,6.0,-999.0,55,-99.99,,,0.08,weatherlink.com 1.10,2013-06-14 15:42:00,
2013-06-14 11:57:00,77.6,61.0,29.75,NW,323,4.0,-999.0,56,-99.99,,,0.08,weatherlink.com 1.10,2013-06-14 15:57:00,
2013-06-14 12:12:00,77.6,60.0,29.76,NW,320,2.0,-999.0,54,-99.99,,,0.08,weatherlink.com 1.10,2013-06-14 16:12:00,
2013-06-14 12:27:00,78.1,59.0,29.76,East,89,0.0,-999.0,53,-99.99,,,0.08,weatherlink.com 1.10,2013-06-14 16:27:00,
2013-06-14 12:42:00,78.3,61.0,29.77,NNW,337,0.0,-999.0,55,-99.99,,,0.08,weatherlink.com 1.10,2013-06-14 16:42:00,
2013-06-14 12:57:00,78.5,59.0,29.77,NW,308,6.0,-999.0,51,-99.99,,,0.08,weatherlink.com 1.10,2013-06-14 16:57:00,
2013-06-14 13:12:00,77.7,59.0,29.78,North,0,0.0,-999.0,53,-99.99,,,0.08,weatherlink.com 1.10,2013-06-14 17:12:00,
2013-06-14 13:27:00,78.3,59.0,29.78,NNW,342,2.0,-999.0,51,-99.99,,,0.08,weatherlink.com 1.10,2013-06-14 17:27:00,
2013-06-14 13:42:00,78.6,59.0,29.79,NW,316,2.0,-999.0,52,-99.99,,,0.08,weatherlink.com 1.10,2013-06-14 17:42:00,
2013-06-14 13:57:00,78.6,59.0,29.79,NW,309,4.0,-999.0,52,-99.99,,,0.08,weatherlink.com 1.10,2013-06-14 17:57:00,
2013-06-14 14:12:00,77.9,58.0,29.79,NW,312,7.0,-999.0,51,-99.99,,,0.08,weatherlink.com 1.10,2013-06-14 18:12:00,
2013-06-14 14:27:00,78.1,58.0,29.79,SE,133,0.0,-999.0,51,-99.99,,,0.08,weatherlink.com 1.10,2013-06-14 18:27:00,
2013-06-14 14:42:00,77.9,58.0,29.79,NW,320,0.0,-999.0,50,-99.99,,,0.08,weatherlink.com 1.10,2013-06-14 18:42:00,
2013-06-14 14:57:00,79.2,57.0,29.79,NW,312,2.0,-999.0,47,-99.99,,,0.08,weatherlink.com 1.10,2013-06-14 18:57:00,
2013-06-14 15:12:00,79.2,59.0,29.81,NW,318,10.0,-999.0,50,-99.99,,,0.08,weatherlink.com 1.10,2013-06-14 19:12:00,
2013-06-14 15:27:00,78.6,57.0,29.81,NNW,340,6.0,-999.0,48,-99.99,,,0.08,weatherlink.com 1.10,2013-06-14 19:27:00,
2013-06-14 15:42:00,78.6,57.0,29.81,NNW,336,0.0,-999.0,48,-99.99,,,0.08,weatherlink.com 1.10,2013-06-14 19:42:00,
2013-06-14 15:57:00,77.9,57.0,29.82,NW,322,9.0,-999.0,48,-99.99,,,0.08,weatherlink.com 1.10,2013-06-14 19:57:00,
2013-06-14 16:12:00,77.9,58.0,29.82,NW,326,6.0,-999.0,50,-99.99,,,0.08,weatherlink.com 1.10,2013-06-14 20:12:00,
2013-06-14 16:27:00,77.0,57.0,29.82,NNW,333,6.0,-999.0,50,-99.99,,,0.08,weatherlink.com 1.10,2013-06-14 20:27:00,
2013-06-14 16:42:00,76.8,57.0,29.83,NW,316,2.0,-999.0,51,-99.99,,,0.08,weatherlink.com 1.10,2013-06-14 20:42:00,
2013-06-14 16:57:00,77.4,58.0,29.84,NNW,332,1.0,-999.0,51,-99.99,,,0.08,weatherlink.com 1.10,2013-06-14 20:57:00,
2013-06-14 17:12:00,77.4,59.0,29.84,NNW,332,0.0,-999.0,53,-99.99,,,0.08,weatherlink.com 1.10,2013-06-14 21:12:00,
2013-06-14 17:27:00,76.8,59.0,29.84,NNE,32,0.0,-999.0,54,-99.99,,,0.08,weatherlink.com 1.10,2013-06-14 21:27:00,
2013-06-14 17:42:00,77.6,57.0,29.84,NNW,329,7.0,-999.0,50,-99.99,,,0.08,weatherlink.com 1.10,2013-06-14 21:42:00,
2013-06-14 17:57:00,77.4,57.0,29.84,NW,326,0.0,-999.0,50,-99.99,,,0.08,weatherlink.com 1.10,2013-06-14 21:57:00,
2013-06-14 18:12:00,77.6,57.0,29.84,NNW,328,2.0,-999.0,50,-99.99,,,0.08,weatherlink.com 1.10,2013-06-14 22:12:00,
2013-06-14 18:27:00,77.2,57.0,29.84,NNW,333,0.0,-999.0,50,-99.99,,,0.08,weatherlink.com 1.10,2013-06-14 22:27:00,
2013-06-14 18:42:00,77.4,57.0,29.84,NNW,329,0.0,-999.0,50,-99.99,,,0.08,weatherlink.com 1.10,2013-06-14 22:42:00,
2013-06-14 18:57:00,76.5,57.0,29.85,WNW,282,0.0,-999.0,51,-99.99,,,0.08,weatherlink.com 1.10,2013-06-14 22:57:00,
2013-06-14 19:12:00,75.6,57.0,29.85,NW,309,0.0,-999.0,53,-99.99,,,0.08,weatherlink.com 1.10,2013-06-14 23:12:00,
2013-06-14 19:27:00,75.3,57.0,29.86,NNW,335,0.0,-999.0,54,-99.99,,,0.08,weatherlink.com 1.10,2013-06-14 23:27:00,
2013-06-14 19:42:00,75.1,57.0,29.86,NNW,333,0.0,-999.0,54,-99.99,,,0.08,weatherlink.com 1.10,2013-06-14 23:42:00,
2013-06-14 19:57:00,74.4,58.0,29.87,NNW,329,0.0,-999.0,56,-99.99,,,0.08,weatherlink.com 1.10,2013-06-14 23:57:00,
2013-06-14 20:12:00,73.3,58.0,29.87,NNW,329,0.0,-999.0,59,-99.99,,,0.08,weatherlink.com 1.10,2013-06-15 00:12:00,
2013-06-14 20:27:00,72.7,58.0,29.88,NNW,329,0.0,-999.0,61,-99.99,,,0.08,weatherlink.com 1.10,2013-06-15 00:27:00,
2013-06-14 20:42:00,71.5,59.0,29.89,NNW,329,0.0,-999.0,64,-99.99,,,0.08,weatherlink.com 1.10,2013-06-15 00:42:00,
2013-06-14 20:57:00,70.4,58.0,29.89,NNW,329,0.0,-999.0,66,-99.99,,,0.08,weatherlink.com 1.10,2013-06-15 00:57:00,
2013-06-14 21:12:00,69.4,60.0,29.90,NNW,328,0.0,-999.0,72,-99.99,,,0.08,weatherlink.com 1.10,2013-06-15 01:12:00,
2013-06-14 21:27:00,68.1,59.0,29.90,NNW,328,0.0,-999.0,73,-99.99,,,0.08,weatherlink.com 1.10,2013-06-15 01:27:00,
2013-06-14 21:42:00,67.1,58.0,29.91,ENE,73,0.0,-999.0,72,-99.99,,,0.08,weatherlink.com 1.10,2013-06-15 01:42:00,
2013-06-14 21:57:00,66.8,57.0,29.91,ENE,73,0.0,-999.0,72,-99.99,,,0.08,weatherlink.com 1.10,2013-06-15 01:57:00,
2013-06-14 22:12:00,66.4,58.0,29.93,ENE,73,0.0,-999.0,73,-99.99,,,0.08,weatherlink.com 1.10,2013-06-15 02:12:00,
2013-06-14 22:27:00,66.1,58.0,29.94,ENE,73,0.0,-999.0,75,-99.99,,,0.08,weatherlink.com 1.10,2013-06-15 02:27:00,
2013-06-14 22:42:00,65.6,58.0,29.95,ENE,73,0.0,-999.0,77,-99.99,,,0.08,weatherlink.com 1.10,2013-06-15 02:42:00,
2013-06-14 22:57:00,65.0,58.0,29.95,ENE,73,0.0,-999.0,77,-99.99,,,0.08,weatherlink.com 1.10,2013-06-15 02:57:00,
2013-06-14 23:12:00,64.0,57.0,29.95,ENE,73,0.0,-999.0,78,-99.99,,,0.08,weatherlink.com 1.10,2013-06-15 03:12:00,
2013-06-14 23:27:00,63.4,57.0,29.95,ENE,73,0.0,-999.0,79,-99.99,,,0.08,weatherlink.com 1.10,2013-06-15 03:27:00,
2013-06-14 23:42:00,63.1,57.0,29.96,ENE,73,0.0,-999.0,81,-99.99,,,0.08,weatherlink.com 1.10,2013-06-15 03:42:00,
2013-06-14 23:57:00,62.4,57.0,29.96,ENE,73,0.0,-999.0,81,-99.99,,,0.08,weatherlink.com 1.10,2013-06-15 03:57:00,